Powrót do katalogu

SWARM B

AktywnyNaukaPO
NORAD 39451·PAYLOAD·🇪🇺 EU

Wystrzelony Nov 22, 2013 z Plesetsk Cosmodrome

Loading…

Następne Przeloty (najbliższe 24 godziny)

TLE

ŚwieżeSource: CelesTrak SupGP

Epoka: Sep 14, 2026, 00:00 UTC

1 39451C 13067A   26257.00000000  .00002683  00000+0  95510-4 0  2570
2 39451  87.7432 315.3501 0003416  98.3317 133.6385 15.29034260    10

Śledź SWARM B w czasie rzeczywistym z AllMySat

Download on the App Store